Phenix City, Alabama, United States (36867)
Lat: 32.47N, Lon: 85W
Wx Zone: ALZ048
Local Info
Past Weather Observations for Yesterday

NOTE: This archive is for the closest National Weather Service station to Phenix City. Information may differ from the station used for current weather conditions.

Click here for Long-term Archive

Time Weather Temperature Dewpoint Humidity Pressure Winds Precip Visibility
23:51
Overcast
Fog And Mist
48°F / 9°C 48°F / 9°C 100% 30.06 in
(1018 mb)
ESE 9.2 mph
(ESE 15 kph)
- 6SM
22:51
Overcast
Fog And Mist
48°F / 9°C 48°F / 9°C 100% 30.09 in
(1019 mb)
E 4.6 mph
(E 7 kph)
- 5SM
22:47
Overcast
Fog And Mist
48°F / 9°C 48°F / 9°C 100% 30.09 in
(1019 mb)
ESE 4.6 mph
(ESE 7 kph)
- 5SM
22:25
Overcast
Fog And Mist
48°F / 9°C 48°F / 9°C 100% 30.06 in
(1018 mb)
ESE 8.1 mph
(ESE 13 kph)
- 3SM
22:04
Overcast
Fog And Mist
48°F / 9°C 48°F / 9°C 100% 30.06 in
(1018 mb)
ESE 8.1 mph
(ESE 13 kph)
- 2 1/2SM
21:51
Overcast
Fog And Mist
50°F / 10°C 48°F / 9°C 94% 30.06 in
(1018 mb)
ESE 6.9 mph
(ESE 11 kph)
- 4SM
20:51
Overcast
50°F / 10°C 48°F / 9°C 94% 30.06 in
(1018 mb)
ESE 9.2 mph
(ESE 15 kph)
- 7SM
19:51
Overcast
50°F / 10°C 48°F / 9°C 94% 30.09 in
(1019 mb)
ESE 10.4 mph
(ESE 17 kph)
- 10SM
18:51
Overcast
52°F / 11°C 48°F / 9°C 88% 30.09 in
(1019 mb)
E 6.9 mph
(E 11 kph)
- 8SM
17:51
Overcast
52°F / 11°C 48°F / 9°C 88% 30.09 in
(1019 mb)
ESE 8.1 mph
(ESE 13 kph)
0.00 in
(0.00 mm)
9SM
16:51
Overcast
Fog And Mist
52°F / 11°C 48°F / 9°C 88% 30.09 in
(1019 mb)
ENE 5.8 mph
(ENE 9 kph)
0.00 in
(0.00 mm)
5SM
15:51
Overcast
Light Rain
52°F / 11°C 46°F / 8°C 82% 30.06 in
(1018 mb)
E 4.6 mph
(E 7 kph)
0.00 in
(0.00 mm)
10SM
14:51
Overcast
Hazy
52°F / 11°C 46°F / 8°C 82% 30.09 in
(1019 mb)
E 9.2 mph
(E 15 kph)
- 5SM
14:22
Overcast
Fog And Mist
52°F / 11°C 46°F / 8°C 82% 30.09 in
(1019 mb)
ESE 9.2 mph
(ESE 15 kph)
- 5SM
13:51
Overcast
Fog And Mist
52°F / 11°C 46°F / 8°C 82% 30.09 in
(1019 mb)
E 9.2 mph
(E 15 kph)
- 5SM
12:51
Overcast
Fog And Mist
52°F / 11°C 46°F / 8°C 82% 30.12 in
(1020 mb)
E 10.4 mph
(E 17 kph)
- 5SM
11:51
Overcast
Fog And Mist
52°F / 11°C 46°F / 8°C 82% 30.15 in
(1021 mb)
E 10.4 mph
(E 17 kph)
- 5SM
10:51
Overcast
50°F / 10°C 46°F / 8°C 88% 30.18 in
(1022 mb)
E 10.4 mph
(E 17 kph)
- 7SM
09:51
Overcast
50°F / 10°C 46°F / 8°C 88% 30.18 in
(1022 mb)
ENE 9.2 mph
(ENE 15 kph)
- 7SM
08:51
Overcast
Fog And Mist
48°F / 9°C 46°F / 8°C 94% 30.18 in
(1022 mb)
E 6.9 mph
(E 11 kph)
- 6SM
07:51
Overcast
50°F / 10°C 46°F / 8°C 88% 30.18 in
(1022 mb)
E 5.8 mph
(E 9 kph)
- 9SM
06:51
Overcast
50°F / 10°C 48°F / 9°C 94% 30.15 in
(1021 mb)
E 5.8 mph
(E 9 kph)
- 9SM
05:51
Overcast
50°F / 10°C 48°F / 9°C 94% 30.15 in
(1021 mb)
ENE 4.6 mph
(ENE 7 kph)
- 7SM
04:51
Overcast
Fog And Mist
50°F / 10°C 48°F / 9°C 94% 30.15 in
(1021 mb)
ENE 4.6 mph
(ENE 7 kph)
- 6SM
03:51
Overcast
52°F / 11°C 48°F / 9°C 88% 30.18 in
(1022 mb)
E 5.8 mph
(E 9 kph)
- 7SM
02:51
Overcast
52°F / 11°C 48°F / 9°C 88% 30.18 in
(1022 mb)
E 5.8 mph
(E 9 kph)
- 7SM
02:37
Overcast
52°F / 11°C 48°F / 9°C 88% 30.15 in
(1021 mb)
E 5.8 mph
(E 9 kph)
- 7SM
01:51
Overcast
52°F / 11°C 48°F / 9°C 88% 30.15 in
(1021 mb)
E 8.1 mph
(E 13 kph)
- 8SM
01:09
Overcast
52°F / 11°C 48°F / 9°C 88% 30.18 in
(1022 mb)
E 4.6 mph
(E 7 kph)
- 9SM
00:51
Overcast
52°F / 11°C 48°F / 9°C 88% 30.18 in
(1022 mb)
E 4.6 mph
(E 7 kph)
- 9SM
Time Weather Temperature Dewpoint Humidity Pressure Winds Precip Visibility


Weather for websites

WeatherForYou.com, LLC is not responsible for any damages or problems caused by this service. Current weather conditions are obtained from the closest station including government and personal stations which may have varying degrees of accuracy. Weather forecasts are derived from the NOAA NDFD. Like all things, this site belongs to Jesus Christ... He just trusts me to maintain it. If you have any questions or comments email webmaster@weatherforyou.com

Copyright © 2014, WeatherForYou.com LLC. All rights reserved.